Погода в Катагане

Узбекистан     38°59′36″N   67°03′14″E
темп.,
°C
ветер,
м/с
пор.,
м/с
влажн.,
%
обл.,
%
осадки,
мм/ч
давл.,
гПа
погр.,
м
1 марта, пн
пн123:00+4юв334211 0.0 102025
02:00+4юв343767 0.0 101926
05:00+4юв443549 0.0 101930
08:00+5юв55390 0.0 101944
11:00+12ю24480 0.0 1019256
14:00+15юз36300 0.0 10181826
17:00+13зюз35380 0.0 1018207
20:00+8юв33410 0.0 102024
2 марта, вт
вт223:00+7юв343929 0.0 102131
02:00+7юв443653 0.0 102135
05:00+7юв333477 0.0 102027
08:00+8юв2337100 0.0 102124
11:00+13в1134100 0.0 1021130
14:00+13з3430100 0.0 10201110
17:00+12зюз3540100 0.0 1020647
20:00+8ююв2258100 0.0 102239
3 марта, ср
ср323:00+7ююв1262100 0.0 102327
02:00+7вюв237198 0.0 102346
05:00+6вюв338299 0.2 102296
08:00+6вюв3380100 0.2 1022111
11:00+10зсз135793 0.2 10221071
14:00+12з454987 0.1 10191471
17:00+9св126594 0.5 1019539
20:00+8в227343 0.2 101931
4 марта, чт
чт423:00+7вюв126421 0.2 101926
02:00+7юв22540 0.0 101724
05:00+7вюв235017 0.0 101723
08:00+8юв335399 0.0 101743
11:00+14зюз354388 0.0 10171068
14:00+13зсз455056 0.1 10171427
17:00+9св348073 2.3 1017244
20:00+8вюв237416 1.1 101934
5 марта, пт
пт523:00+8юв227551 2.9 102228
02:00+6зюз57764 0.4 1023142
05:00+3зюз239650 2.1 1026243
08:00+3вюв2394100 7.1 1027207
11:00+8всв226798 7.6 1026358
14:00+12сз23543 0.0 1022960
17:00+11ссз215936 0.0 1020626
20:00+9в236499 0.0 101865